Flag for Greece Weather past 2 weeks in Ilioupoli, Greece

Now
82 °F

Passing clouds.


Feels Like: 81 °F
Forecast: 63 / 81 °F
Wind: 3 mph from North

Location: Eleftherios Venizelos International Airport

Current Time: May 22, 2015 at 2:52:42 PM

Latest Report: May 22, 2015 at 1:50 PM


Visibility: N/A

Pressure: 29.95 "Hg

Humidity: 30%

Dew point: 48 °F

Location of IlioupoliLocation

Historic Weather in Ilioupoli — Graph

°F

Ilioupoli temperature yesterday

Maximum temperature yesterday: 82 °F (at 1:50 PM)
Minimum temperature yesterday: 57 °F (at 2:50 AM)
Average temperature yesterday: 69 °F

Past Weeks' High & Low Weather Summary

 TemperatureHumidityPressure
High90 °F (May 7, 3:20 PM)94% (May 21, 2:50 AM)30.15 "Hg (May 21, 2:50 AM)
Low50 °F (May 18, 5:20 AM)23% (May 10, 2:20 PM)29.74 "Hg (May 19, 5:20 PM)
Average69 °F53%29.95 "Hg
* Reported May 7 1:50 PM — May 22 1:50 PM, Ilioupoli, Weather by CustomWeather, © 2015

Note: Actual official high and low records may vary slightly from our data, if they occured in-between our weather recording intervals... More about our weather records

Advertising

Ilioupoli weather history for previous 24 hours

 ConditionsComfort  
Time TempWeatherWind HumidityBarometerVisibility
1:50 PM
Fri, May 22
82 °FPassing clouds.3 mph30%29.95 "HgN/A
1:20 PM82 °FPassing clouds.2 mph32%29.98 "HgN/A
12:50 PM81 °FPassing clouds.2 mph34%29.98 "HgN/A
12:20 PM79 °FPassing clouds.2 mph39%29.98 "HgN/A
11:50 AM79 °FPassing clouds.2 mph39%29.98 "HgN/A
11:20 AM79 °FPassing clouds.2 mph42%29.98 "HgN/A
10:50 AM77 °FPassing clouds.3 mph44%29.98 "HgN/A
10:20 AM75 °FPassing clouds.3 mph47%29.98 "HgN/A
9:50 AM73 °FPassing clouds.1 mph57%29.98 "HgN/A
9:20 AM70 °FPassing clouds.2 mph78%29.98 "HgN/A
8:50 AM66 °FPassing clouds.2 mph88%29.98 "HgN/A
8:20 AM66 °FPassing clouds.2 mph83%29.98 "HgN/A
7:50 AM64 °FPassing clouds.No wind88%29.98 "HgN/A
7:20 AM63 °FPassing clouds.1 mph83%29.95 "HgN/A
6:50 AM63 °FPassing clouds.1 mph83%29.95 "HgN/A
6:20 AM63 °FPassing clouds.No wind83%29.95 "Hg3 mi
5:50 AM61 °FPassing clouds.1 mph88%29.95 "HgN/A
5:20 AM61 °FPassing clouds.1 mph83%29.95 "HgN/A
4:50 AM63 °FPassing clouds.1 mph83%29.95 "HgN/A
4:20 AM64 °FPassing clouds.1 mph73%29.95 "HgN/A
3:50 AM64 °FPassing clouds.3 mph73%29.95 "HgN/A
3:20 AM63 °FPassing clouds.3 mph83%29.98 "HgN/A
2:50 AM63 °FPassing clouds.2 mph83%29.98 "HgN/A
2:20 AM64 °FPassing clouds.1 mph83%29.98 "HgN/A
1:50 AM63 °FPassing clouds.3 mph83%30.01 "HgN/A
1:20 AM64 °FPassing clouds.1 mph78%29.98 "HgN/A
12:50 AM63 °FPassing clouds.2 mph83%29.98 "HgN/A
12:20 AM63 °FPassing clouds.3 mph83%29.98 "HgN/A
11:50 PM
Thu, May 21
63 °FPassing clouds.3 mph83%29.98 "HgN/A
11:20 PM64 °FPassing clouds.2 mph83%30.01 "HgN/A
10:50 PM66 °FPassing clouds.1 mph78%30.01 "HgN/A
10:20 PM68 °FPassing clouds.3 mph69%30.01 "HgN/A
9:50 PM70 °FPassing clouds.3 mph64%30.01 "HgN/A
9:20 PM70 °FPassing clouds.2 mph69%29.98 "HgN/A
8:50 PM70 °FPassing clouds.3 mph64%29.98 "HgN/A
8:20 PM70 °FPassing clouds.5 mph64%29.98 "HgN/A
7:50 PM72 °FPassing clouds.7 mph65%29.98 "HgN/A
7:20 PM73 °FPassing clouds.7 mph61%29.95 "HgN/A
6:50 PM73 °FPassing clouds.9 mph61%29.95 "HgN/A
6:20 PM75 °FPassing clouds.8 mph61%29.95 "HgN/A
5:50 PM77 °FPassing clouds.7 mph51%29.98 "HgN/A
5:20 PM75 °FPassing clouds.7 mph61%29.95 "HgN/A
4:50 PM79 °FPassing clouds.13 mph45%29.95 "HgN/A
4:20 PM79 °FPassing clouds.10 mph45%29.95 "HgN/A
3:50 PM82 °FPassing clouds.7 mph40%29.95 "HgN/A
3:20 PM82 °FPassing clouds.7 mph37%29.95 "HgN/A
2:50 PM82 °FPassing clouds.5 mph35%29.98 "HgN/A
2:20 PM81 °FPassing clouds.9 mph42%29.98 "HgN/A
Weather by CustomWeather, © 2015

See weather overviewHow to use our weather pages